Arctic Village, AK

5:53 PM AKDT on June 28, 2017 (GMT -0800)
Arctic Village

Weather History for PARC - March, 2014

Change the Weather History Date:

Sunday, March 2, 2014

  Actual Average Record
Temperature  
Mean Temperature -6 °F -  
Max Temperature 6 °F 3 °F 27 °F (1988)
Min Temperature -18 °F -23 °F -55 °F (1971)
Degree Days  
Heating Degree Days 71    
Moisture  
Dew Point -20 °F    
Average Humidity 49    
Maximum Humidity 100    
Minimum Humidity 4    
Precipitation  
Precipitation 0.00 in - - ()
Sea Level Pressure  
Sea Level Pressure 29.96 in    
Wind  
Wind Speed 1 mph (NE)    
Max Wind Speed 5 mph    
Max Gust Speed -    
Visibility 10 miles    
Events      
Averages and records for this station are not official NWS values.
T = Trace of Precipitation, MM = Missing Value Source: NWS Daily Summary

Daily Weather History Graph

Daily Weather History Graph

Search for Another Location

Airport or City:

Trip Planner

Search our weather history database for the weather conditions in past years. The results will help you decide how hot, cold, wet, or windy it might be!

Date:

Astronomy

Mar. 02, 2014 Rise Set
Actual Time 7:56 AM AKST 5:53 PM AKST
Civil Twilight 7:00 AM AKST 6:50 PM AKST
Nautical Twilight 5:55 AM AKST 7:55 PM AKST
Astronomical Twilight 4:47 AM AKST 9:04 PM AKST
Moon 7:34 AM AKST (3/2) 9:17 PM AKST (3/2)
Length of Visible Light 11h 49m
Length of Day
9h 56m
Waxing Crescent, 3% of the Moon is Illuminated
Mar 2
Waxing Crescent
Mar 8
First Quarter
Mar 16
Full
Mar 23
Last Quarter
Mar 30
New

Hourly Weather History & Observations

Time (AKST) Temp. Windchill Dew Point Humidity Pressure Visibility Wind Dir Wind Speed Gust Speed Precip Events Conditions
12:16 AM -11.2 °F - -23.8 °F 54% 29.95 in 7.0 mi Calm Calm - N/A   Clear
12:36 AM -9.4 °F - -16.6 °F 71% 29.94 in 10.0 mi Calm Calm - N/A   Clear
12:56 AM -7.6 °F -18.8 °F -13.0 °F 77% 29.94 in 10.0 mi North 4.6 mph - N/A   Clear
1:16 AM -7.6 °F - - N/A% 29.95 in 10.0 mi Calm Calm - N/A   Clear
1:36 AM -14.8 °F - - N/A% 29.95 in 10.0 mi Calm Calm - N/A   Clear
1:56 AM -14.8 °F - - N/A% 29.95 in 10.0 mi Calm Calm - N/A   Clear
2:16 AM -11.2 °F - - N/A% 29.95 in 10.0 mi Calm Calm - N/A   Clear
2:36 AM -14.8 °F - - N/A% 29.94 in 10.0 mi Calm Calm - N/A   Clear
2:56 AM -11.2 °F - -29.2 °F 41% 29.94 in 10.0 mi Calm Calm - N/A   Clear
3:16 AM -11.2 °F - -23.8 °F 54% 29.94 in 8.0 mi Calm Calm - N/A   Clear
3:36 AM -11.2 °F - -25.6 °F 49% 29.93 in 7.0 mi Calm Calm - N/A   Clear
3:56 AM -14.8 °F -24.8 °F -23.8 °F 64% 29.93 in 6.0 mi NE 3.5 mph - N/A   Clear
4:16 AM -16.6 °F - -94.0 °F 4% 29.94 in 8.0 mi Calm Calm - N/A   Clear
4:36 AM -14.8 °F - - N/A% 29.94 in 7.0 mi Calm Calm - N/A   Clear
4:56 AM -13.0 °F - - N/A% 29.94 in 10.0 mi Calm Calm - N/A   Clear
5:16 AM -14.8 °F - - N/A% 29.94 in 10.0 mi Calm Calm - N/A   Clear
5:36 AM -18.4 °F - - N/A% 29.94 in 10.0 mi Calm Calm - N/A   Clear
5:56 AM -16.6 °F - - N/A% 29.94 in 8.0 mi Calm Calm - N/A   Clear
6:16 AM -16.6 °F -29.3 °F - N/A% 29.94 in 10.0 mi NE 4.6 mph - N/A   Clear
6:36 AM -18.4 °F - - N/A% 29.94 in 9.0 mi Calm Calm - N/A   Clear
6:56 AM -18.4 °F - - N/A% 29.94 in 10.0 mi Calm Calm - N/A   Clear
7:16 AM -14.8 °F - - N/A% 29.94 in 10.0 mi Calm Calm - N/A   Clear
7:36 AM -14.8 °F - - N/A% 29.94 in 10.0 mi Calm Calm - N/A   Clear
7:56 AM -16.6 °F - - N/A% 29.94 in 10.0 mi Calm Calm - N/A   Clear
8:16 AM -18.4 °F - - N/A% 29.94 in 10.0 mi Calm Calm - N/A   Clear
8:36 AM -18.4 °F - - N/A% 29.94 in 10.0 mi Calm Calm - N/A   Clear
8:56 AM -18.4 °F - - N/A% 29.94 in 9.0 mi Calm Calm - N/A   Clear
9:16 AM -18.4 °F - - N/A% 29.95 in 10.0 mi Calm Calm - N/A   Clear
9:36 AM -16.6 °F - - N/A% 29.95 in 10.0 mi Calm Calm - N/A   Clear
9:56 AM -13.0 °F -22.7 °F - N/A% 29.95 in 10.0 mi North 3.5 mph - N/A   Clear
10:16 AM -11.2 °F -23.0 °F - N/A% 29.95 in 10.0 mi SE 4.6 mph - N/A   Clear
10:36 AM -11.2 °F - - N/A% 29.95 in 10.0 mi Calm Calm - N/A   Clear
10:56 AM -11.2 °F - - N/A% 29.96 in 10.0 mi Calm Calm - N/A   Clear
11:16 AM -9.4 °F - - N/A% 29.96 in 10.0 mi Calm Calm - N/A   Clear
11:36 AM -5.8 °F - -23.8 °F 42% 29.96 in 10.0 mi Calm Calm - N/A   Clear
11:56 AM -4.0 °F -12.4 °F -4.0 °F 100% 29.96 in 10.0 mi North 3.5 mph - N/A   Clear
12:16 PM -2.2 °F -10.4 °F -18.4 °F 46% 29.96 in 10.0 mi SE 3.5 mph - N/A   Clear
12:36 PM -4.0 °F - - N/A% 29.96 in 10.0 mi Calm Calm - N/A   Clear
12:56 PM -0.4 °F - -25.6 °F 30% 29.96 in 10.0 mi Calm Calm - N/A   Clear
1:16 PM -0.4 °F - -20.2 °F 39% 29.96 in 10.0 mi Calm Calm - N/A   Clear
1:36 PM 1.4 °F - -20.2 °F 36% 29.96 in 10.0 mi Calm Calm - N/A   Clear
1:56 PM 1.4 °F - -23.8 °F 30% 29.96 in 10.0 mi Calm Calm - N/A   Clear
2:16 PM 3.2 °F - -4.0 °F 72% 29.96 in 10.0 mi Calm Calm - N/A   Clear
2:36 PM 3.2 °F - -20.2 °F 33% 29.96 in 10.0 mi Calm Calm - N/A   Clear
2:56 PM 3.2 °F - -25.6 °F 25% 29.96 in 10.0 mi Calm Calm - N/A   Clear
3:16 PM 5.0 °F - -22.0 °F 28% 29.96 in 10.0 mi Calm Calm - N/A   Clear
3:36 PM 6.8 °F - -13.0 °F 40% 29.96 in 10.0 mi Calm Calm - N/A   Clear
3:56 PM 6.8 °F - -7.6 °F 52% 29.96 in 10.0 mi Calm Calm - N/A   Clear
4:16 PM 6.8 °F - -7.6 °F 52% 29.96 in 10.0 mi Calm Calm - N/A   Clear
4:36 PM 6.8 °F - -9.4 °F 48% 29.97 in 10.0 mi Calm Calm - N/A   Clear
4:56 PM 6.8 °F - -5.8 °F 56% 29.97 in 10.0 mi Calm Calm - N/A   Clear
5:16 PM 6.8 °F - -7.6 °F 52% 29.97 in 10.0 mi Calm Calm - N/A   Clear
5:36 PM 6.8 °F - -7.6 °F 52% 29.96 in 10.0 mi Calm Calm - N/A   Clear
5:56 PM 5.0 °F - - N/A% 29.96 in 10.0 mi Calm Calm - N/A   Clear
6:16 PM 1.4 °F -6.2 °F -14.8 °F 47% 29.97 in 10.0 mi SE 3.5 mph - N/A   Clear
6:36 PM 1.4 °F -6.2 °F - N/A% 29.98 in 10.0 mi North 3.5 mph - N/A   Clear
6:56 PM -0.4 °F - - N/A% 29.98 in 10.0 mi Calm Calm - N/A   Clear
7:16 PM -0.4 °F - -22.0 °F 36% 29.97 in 10.0 mi Calm Calm - N/A   Clear
7:36 PM -0.4 °F - -9.4 °F 66% 29.98 in 10.0 mi Calm Calm - N/A   Clear
7:56 PM -4.0 °F - -14.8 °F 60% 29.98 in 10.0 mi Calm Calm - N/A   Clear
8:16 PM -4.0 °F - -4.0 °F 100% 29.98 in 10.0 mi Calm Calm - N/A   Clear
8:36 PM -5.8 °F -16.7 °F -23.8 °F 42% 29.99 in 10.0 mi NW 4.6 mph - N/A   Clear
8:56 PM -4.0 °F - -16.6 °F 55% 30.00 in 10.0 mi Calm Calm - N/A   Clear
9:16 PM -4.0 °F - -5.8 °F 92% 30.00 in 10.0 mi Calm Calm - N/A   Clear
9:36 PM 1.4 °F - -11.2 °F 56% 30.01 in 10.0 mi Calm Calm - N/A   Partly Cloudy
9:56 PM 1.4 °F -6.2 °F -29.2 °F 23% 30.01 in 10.0 mi NE 3.5 mph - N/A   Mostly Cloudy
10:16 PM 1.4 °F -8.3 °F -20.2 °F 36% 30.00 in 10.0 mi East 4.6 mph - N/A   Overcast
10:36 PM 1.4 °F -6.2 °F -18.4 °F 39% 30.01 in 10.0 mi East 3.5 mph - N/A   Overcast
10:56 PM -7.6 °F - - N/A% 30.00 in 10.0 mi Calm Calm - N/A   Overcast
11:16 PM -7.6 °F - -20.2 °F 54% 30.00 in 10.0 mi Calm Calm - N/A   Overcast
11:36 PM -5.8 °F - -56.2 °F 7% 30.01 in 10.0 mi Calm Calm - N/A   Overcast
11:56 PM -4.0 °F - - N/A% 30.01 in 10.0 mi Calm Calm - N/A   Overcast